Terminal Aerodrome Forecast
Issued by NWS

Home | Current Version | Previous Version | Graphics & Text | Print | Product List | Glossary On
Versions: 1 2 3 4 5 6 7 8 9 10 11 12 13 14 15
000
FTUS43 KMPX 202300
TAFRWF
TAF
KRWF 202327Z 2100/2124 10007KT P6SM SCT250
     FM210300 12005KT P6SM SCT090 BKN250
     FM210800 31006KT P6SM BKN090
     FM211230 32017G25KT P6SM FEW050=

USA.gov is the U.S. government's official web portal to all federal, state and local government web resources and services.